Weather History for KFOE - September, 2013

Change the Weather History Date:

Tuesday, September 3, 2013

  Actual Average Record
Temperature  
Mean Temperature 70 °F -  
Max Temperature 87 °F 86 °F 104 °F (1954)
Min Temperature 54 °F 62 °F 44 °F (1974)
Cooling Degree Days 5    
Growing Degree Days 20 (Base 50)    
Moisture  
Dew Point 55 °F    
Average Humidity 65    
Maximum Humidity 93    
Minimum Humidity 32    
Precipitation  
Precipitation 0.00 in - - ()
Sea Level Pressure  
Sea Level Pressure 30.05 in    
Wind  
Wind Speed 2 mph (ESE)    
Max Wind Speed 8 mph    
Max Gust Speed -    
Visibility 10 miles    
Events      
Averages and records for this station are not official NWS values.
T = Trace of Precipitation, MM = Missing Value Source: NWS Daily Summary

Daily Weather History Graph

Daily Weather History Graph

Search for Another Location

Airport or City:

Trip Planner

Search our weather history database for the weather conditions in past years. The results will help you decide how hot, cold, wet, or windy it might be!

Date:

Astronomy

Sep. 03, 2013 Rise Set
Actual Time 6:53 AM CDT 7:49 PM CDT
Civil Twilight 6:26 AM CDT 8:16 PM CDT
Nautical Twilight 5:53 AM CDT 8:48 PM CDT
Astronomical Twilight 5:20 AM CDT 9:22 PM CDT
Moon 5:08 AM CDT (9/3) 6:37 PM CDT (9/3)
Length of Visible Light 13h 50m
Length of Day
12h 55m
Waning Crescent, 3% of the Moon is Illuminated
Sep 3
Waning Crescent
Sep 5
New
Sep 12
First Quarter
Sep 19
Full
Sep 26
Last Quarter

Hourly Weather History & Observations

Time (CDT) Temp. Heat Index Dew Point Humidity Pressure Visibility Wind Dir Wind Speed Gust Speed Precip Events Conditions
12:53 AM 60.1 °F - 55.9 °F 86% 30.04 in 10.0 mi NNW 4.6 mph - N/A   Clear
1:53 AM 60.1 °F - 55.0 °F 83% 30.03 in 10.0 mi Calm Calm - N/A   Clear
2:53 AM 57.9 °F - 54.0 °F 87% 30.04 in 10.0 mi Calm Calm - N/A   Clear
3:53 AM 57.0 °F - 54.0 °F 89% 30.04 in 10.0 mi Calm Calm - N/A   Clear
4:53 AM 57.0 °F - 53.1 °F 87% 30.04 in 10.0 mi Calm Calm - N/A   Clear
5:53 AM 54.0 °F - 52.0 °F 93% 30.05 in 10.0 mi Calm Calm - N/A   Clear
6:53 AM 54.0 °F - 52.0 °F 93% 30.06 in 10.0 mi NNW 3.5 mph - N/A   Clear
7:53 AM 59.0 °F - 55.9 °F 90% 30.09 in 10.0 mi Calm Calm - N/A   Clear
8:53 AM 64.9 °F - 59.0 °F 81% 30.09 in 10.0 mi Calm Calm - N/A   Clear
9:53 AM 70.0 °F - 57.9 °F 65% 30.10 in 10.0 mi Calm Calm - N/A   Clear
10:53 AM 75.0 °F - 55.9 °F 51% 30.10 in 10.0 mi Calm Calm - N/A   Clear
11:53 AM 79.0 °F - 54.0 °F 42% 30.09 in 10.0 mi Variable 4.6 mph - N/A   Clear
12:53 PM 82.0 °F 81.3 °F 54.0 °F 38% 30.08 in 10.0 mi ESE 6.9 mph - N/A   Clear
1:53 PM 82.9 °F 81.8 °F 53.1 °F 36% 30.06 in 10.0 mi SSE 4.6 mph - N/A   Clear
2:53 PM 84.9 °F 83.3 °F 54.0 °F 34% 30.04 in 10.0 mi Variable 4.6 mph - N/A   Clear
3:53 PM 84.9 °F - 52.0 °F 32% 30.02 in 10.0 mi Calm Calm - N/A   Clear
4:53 PM 86.0 °F 84.0 °F 53.1 °F 32% 30.01 in 10.0 mi SE 8.1 mph - N/A   Clear
5:53 PM 84.9 °F 83.2 °F 53.1 °F 33% 30.02 in 10.0 mi Calm Calm - N/A   Clear
6:53 PM 82.9 °F 82.4 °F 57.0 °F 41% 30.01 in 10.0 mi Calm Calm - N/A   Clear
7:53 PM 75.0 °F - 60.1 °F 60% 30.02 in 10.0 mi Calm Calm - N/A   Clear
8:53 PM 70.0 °F - 61.0 °F 73% 30.03 in 10.0 mi Calm Calm - N/A   Clear
9:53 PM 68.0 °F - 59.0 °F 73% 30.04 in 10.0 mi Calm Calm - N/A   Clear
10:53 PM 64.0 °F - 57.9 °F 80% 30.04 in 10.0 mi SE 4.6 mph - N/A   Clear
11:53 PM 64.0 °F - 57.9 °F 80% 30.04 in 10.0 mi ESE 3.5 mph - N/A   Clear